TimeMDT,TemperatureF,Dew PointF,Humidity,Sea Level PressureIn,VisibilityMPH,Wind Direction,Wind SpeedMPH,Gust SpeedMPH,PrecipitationIn,Events,Conditions,WindDirDegrees,DateUTC
12:55 AM,28.9,14.0,54,30.12,10.0,NW,26.5,38.0,N/A,,Clear,310,2013-03-12 06:55:00
1:55 AM,27.0,14.0,58,30.15,10.0,NW,25.3,34.5,N/A,,Clear,310,2013-03-12 07:55:00
2:55 AM,25.0,15.1,66,30.18,10.0,NW,19.6,-,N/A,,Clear,310,2013-03-12 08:55:00
3:55 AM,25.0,15.1,66,30.20,10.0,NW,18.4,31.1,N/A,,Clear,320,2013-03-12 09:55:00
4:55 AM,24.1,14.0,65,30.23,10.0,NW,20.7,31.1,N/A,,Mostly Cloudy,310,2013-03-12 10:55:00
5:55 AM,21.9,12.9,68,30.27,10.0,WNW,17.3,26.5,N/A,,Clear,300,2013-03-12 11:55:00
6:55 AM,19.9,12.0,71,30.31,10.0,WNW,10.4,-,N/A,,Clear,290,2013-03-12 12:55:00
7:55 AM,21.0,12.9,71,30.33,10.0,WNW,12.7,-,N/A,,Clear,290,2013-03-12 13:55:00
8:55 AM,25.0,12.0,58,30.33,10.0,NW,25.3,36.8,N/A,,Clear,320,2013-03-12 14:55:00
9:55 AM,28.0,9.0,45,30.35,10.0,NNW,24.2,35.7,N/A,,Clear,330,2013-03-12 15:55:00
10:55 AM,30.0,6.1,36,30.35,10.0,NNW,23.0,29.9,N/A,,Clear,330,2013-03-12 16:55:00
11:55 AM,33.1,3.0,28,30.34,10.0,NW,21.9,33.4,N/A,,Clear,320,2013-03-12 17:55:00
12:55 PM,36.0,3.0,25,30.33,10.0,NNW,19.6,28.8,N/A,,Clear,330,2013-03-12 18:55:00
1:55 PM,37.9,-0.0,20,30.31,10.0,NNW,18.4,31.1,N/A,,Clear,340,2013-03-12 19:55:00
2:55 PM,39.9,-0.9,18,30.30,10.0,NNW,21.9,29.9,N/A,,Clear,340,2013-03-12 20:55:00
3:55 PM,39.9,-0.0,19,30.30,10.0,NNW,15.0,-,N/A,,Clear,340,2013-03-12 21:55:00
4:55 PM,41.0,1.0,19,30.30,10.0,NNW,17.3,25.3,N/A,,Clear,340,2013-03-12 22:55:00
5:55 PM,37.9,1.0,21,30.30,10.0,North,13.8,-,N/A,,Clear,350,2013-03-12 23:55:00
6:55 PM,28.9,-0.0,29,30.32,10.0,NNE,8.1,-,N/A,,Clear,20,2013-03-13 00:55:00
7:55 PM,23.0,-0.0,37,30.33,10.0,NNE,10.4,-,N/A,,Clear,30,2013-03-13 01:55:00
8:55 PM,21.0,-2.0,36,30.36,10.0,South,3.5,-,N/A,,Clear,180,2013-03-13 02:55:00
9:55 PM,19.0,-0.9,42,30.35,10.0,East,4.6,-,N/A,,Clear,80,2013-03-13 03:55:00
10:55 PM,19.0,-0.0,43,30.35,10.0,East,3.5,-,N/A,,Clear,80,2013-03-13 04:55:00
11:55 PM,17.1,-0.0,47,30.34,10.0,Calm,Calm,-,N/A,,Clear,0,2013-03-13 05:55:00